FW3691 Weather Reports


Display with metric or nautical units.
time (UTC)temp
F
wind
direction
speed
MPH
gust
MPH
rain 1hr
in
rain 24hr
in
rain mn
in
humidity
%
barometer
mb
20260505090033 66 80 2.0 7.0 0.00 0.00 0.00 81 1002.1
20260505084528 66 65 1.0 8.0 0.00 0.00 0.00 79 1002.1
20260505083028 67 63 2.0 6.0 0.00 0.00 0.00 78 1002.2
20260505081531 67 58 1.0 5.0 0.00 0.00 0.00 78 1002.3
20260505080027 67 101 2.0 5.0 0.00 0.00 0.00 78 1002.3
20260505074526 67 65 2.0 6.0 0.00 0.00 0.00 79 1002.6
20260505073035 67 53 2.0 5.0 0.00 0.00 0.00 78 1002.9
20260505071525 67 58 3.0 5.0 0.00 0.00 0.00 78 1002.9
20260505070024 66 43 2.0 5.0 0.00 0.00 0.00 79 1002.9
20260505064525 66 36 1.0 4.0 0.00 0.00 0.00 79 1003.3
20260505063025 66 29 2.0 3.0 0.00 0.00 0.00 79 1003.3
20260505061519 67 144 0.0 5.0 0.00 0.00 0.00 76 1002.5
20260505060026 68 86 2.0 7.0 0.00 0.00 0.00 74 1002.1
20260505054530 68 149 2.0 5.0 0.00 0.00 0.00 73 1002.3
20260505053012 68 169 2.0 8.0 0.00 0.00 0.00 73 1002.7
20260505051510 68 165 2.0 8.0 0.00 0.00 0.00 72 1002.6
20260505041504 68 159 4.0 12.0 0.00 0.00 0.00 70 1002.5
20260505040004 69 192 4.0 11.0 0.00 0.00 0.00 69 1002.7
20260505034501 69 102 4.0 10.0 0.00 0.00 0.00 68 1002.9
20260505033115 70 98 4.0 10.0 0.00 0.00 0.00 66 1003.3
20260505031557 70 163 2.0 8.0 0.00 0.00 0.00 66 1003.5
20260505030057 70 153 3.0 8.0 0.00 0.00 0.00 66 1003.9
20260505024604 70 151 3.0 7.0 0.00 0.00 0.00 65 1003.9
20260505023105 71 178 1.0 7.0 0.00 0.00 0.00 63 1003.8
20260505021556 71 175 3.0 7.0 0.00 0.00 0.00 63 1003.7
20260505020056 71 150 2.0 7.0 0.00 0.00 0.00 63 1003.7
20260505014554 72 208 1.0 5.0 0.00 0.00 0.00 62 1003.7
20260505013052 72 161 3.0 9.0 0.00 0.00 0.00 61 1003.8
20260505011559 73 122 1.0 5.0 0.00 0.00 0.00 61 1003.6
20260505010054 74 160 1.0 6.0 0.00 0.00 0.00 60 1003.6
20260505004554 74 179 4.0 12.0 0.00 0.00 0.00 59 1003.5
20260505003050 75 202 3.0 11.0 0.00 0.00 0.00 58 1003.6
20260505001549 75 188 4.0 13.0 0.00 0.00 0.00 58 1003.7
20260505000050 76 129 2.0 9.0 0.00 0.00 0.00 58 1003.8
20260504234612 76 105 3.0 11.0 0.00 0.00 0.00 57 1003.8
20260504233050 76 136 2.0 10.0 0.00 0.00 0.00 57 1003.8
20260504231554 77 124 5.0 11.0 0.00 0.00 0.00 56 1003.8
20260504230046 77 229 4.0 12.0 0.00 0.00 0.00 55 1003.9
20260504224546 77 269 6.0 12.0 0.00 0.00 0.00 55 1003.9
20260504223045 78 186 5.0 10.0 0.00 0.00 0.00 54 1003.8
20260504221552 78 143 2.0 10.0 0.00 0.00 0.00 55 1003.6
20260504220043 78 98 3.0 10.0 0.00 0.00 0.00 54 1003.8
20260504214548 78 236 5.0 10.0 0.00 0.00 0.00 54 1004.0
20260504213048 78 279 4.0 10.0 0.00 0.00 0.00 54 1004.1
20260504211541 79 132 2.0 13.0 0.00 0.00 0.00 54 1004.1
20260504210045 79 154 3.0 12.0 0.00 0.00 0.00 54 1004.2
20260504204617 79 125 4.0 14.0 0.00 0.00 0.00 54 1004.4
20260504203035 79 263 5.0 11.0 0.00 0.00 0.00 53 1004.7
20260504201533 79 103 4.0 10.0 0.00 0.00 0.00 53 1005.0
20260504200037 80 126 4.0 13.0 0.00 0.00 0.00 52 1005.2
20260504194538 80 119 4.0 17.0 0.00 0.00 0.00 54 1005.3
20260504193031 80 132 6.0 16.0 0.00 0.00 0.00 52 1005.2
20260504191528 80 95 6.0 15.0 0.00 0.00 0.00 51 1005.4
20260504190025 80 248 4.0 13.0 0.00 0.00 0.00 51 1005.6
20260504184524 80 148 6.0 18.0 0.00 0.00 0.00 51 1006.0
20260504183022 80 184 4.0 14.0 0.00 0.00 0.00 53 1006.2
20260504181522 80 205 5.0 15.0 0.00 0.00 0.00 52 1006.3
20260504180020 80 144 4.0 14.0 0.00 0.00 0.00 51 1006.5
20260504174517 80 181 2.0 15.0 0.00 0.00 0.00 53 1006.8
20260504173015 79 267 5.0 11.0 0.00 0.00 0.00 51 1007.1
20260504171532 79 244 4.0 11.0 0.00 0.00 0.00 51 1007.2